owner,sensor,date,latitude,longitude,sea_water_turbidity,qcFlag 
SCCF RECON,ioos:station:SCCF:16:1,2009-11-01T00:00:00Z,26.4345,-81.9647,5.29,1111122 
SCCF RECON,ioos:station:SCCF:16:1,2009-11-01T01:00:00Z,26.4345,-81.9647,3.87,1111122 
SCCF RECON,ioos:station:SCCF:16:1,2009-11-01T02:00:00Z,26.4345,-81.9647,4.52,1111122 
SCCF RECON,ioos:station:SCCF:16:1,2009-11-01T03:00:00Z,26.4345,-81.9647,4.04,1111122 
SCCF RECON,ioos:station:SCCF:16:1,2009-11-01T04:00:00Z,26.4345,-81.9647,4.34,1111122 
SCCF RECON,ioos:station:SCCF:16:1,2009-11-01T05:00:00Z,26.4345,-81.9647,4.31,1111122 
SCCF RECON,ioos:station:SCCF:16:1,2009-11-01T06:00:00Z,26.4345,-81.9647,4.51,1111122 
SCCF RECON,ioos:station:SCCF:16:1,2009-11-01T07:00:00Z,26.4345,-81.9647,4.18,1111122 
SCCF RECON,ioos:station:SCCF:16:1,2009-11-01T08:00:00Z,26.4345,-81.9647,4.98,1111122 
SCCF RECON,ioos:station:SCCF:16:1,2009-11-01T09:00:00Z,26.4345,-81.9647,6.72,1111122 
SCCF RECON,ioos:station:SCCF:16:1,2009-11-01T10:00:00Z,26.4345,-81.9647,8.33,1111122 
SCCF RECON,ioos:station:SCCF:16:1,2009-11-01T11:00:00Z,26.4345,-81.9647,7.18,1111122 
SCCF RECON,ioos:station:SCCF:16:1,2009-11-01T12:00:00Z,26.4345,-81.9647,5.67,1111122 
SCCF RECON,ioos:station:SCCF:16:1,2009-11-01T13:00:00Z,26.4345,-81.9647,4.6,1111122 
SCCF RECON,ioos:station:SCCF:16:1,2009-11-01T14:00:00Z,26.4345,-81.9647,119.26,1111122 
SCCF RECON,ioos:station:SCCF:16:1,2009-11-01T15:00:00Z,26.4345,-81.9647,7.92,1111122 
SCCF RECON,ioos:station:SCCF:16:1,2009-11-01T16:00:00Z,26.4345,-81.9647,158.82,1111122 
SCCF RECON,ioos:station:SCCF:16:1,2009-11-01T17:00:00Z,26.4345,-81.9647,73.38,1111122 
SCCF RECON,ioos:station:SCCF:16:1,2009-11-01T18:00:00Z,26.4345,-81.9647,19.93,1111122 
SCCF RECON,ioos:station:SCCF:16:1,2009-11-01T19:00:00Z,26.4345,-81.9647,4.34,1111122 
SCCF RECON,ioos:station:SCCF:16:1,2009-11-01T20:00:00Z,26.4345,-81.9647,4.02,1111122 
SCCF RECON,ioos:station:SCCF:16:1,2009-11-01T21:00:00Z,26.4345,-81.9647,3.93,1111122 
SCCF RECON,ioos:station:SCCF:16:1,2009-11-01T22:00:00Z,26.4345,-81.9647,4.6,1111122 
SCCF RECON,ioos:station:SCCF:16:1,2009-11-01T23:00:00Z,26.4345,-81.9647,6.61,1111122 
SCCF RECON,ioos:station:SCCF:16:1,2009-11-02T00:00:00Z,26.4345,-81.9647,5.74,1111122 
SCCF RECON,ioos:station:SCCF:16:1,2009-11-02T01:00:00Z,26.4345,-81.9647,6.08,1111122 
SCCF RECON,ioos:station:SCCF:16:1,2009-11-02T02:00:00Z,26.4345,-81.9647,8.07,1111122 
SCCF RECON,ioos:station:SCCF:16:1,2009-11-02T03:00:00Z,26.4345,-81.9647,8.92,1111122 
SCCF RECON,ioos:station:SCCF:16:1,2009-11-02T04:00:00Z,26.4345,-81.9647,12.1,1111122 
SCCF RECON,ioos:station:SCCF:16:1,2009-11-02T05:00:00Z,26.4345,-81.9647,11.24,1111122 
SCCF RECON,ioos:station:SCCF:16:1,2009-11-02T06:00:00Z,26.4345,-81.9647,137.47,1111122 
SCCF RECON,ioos:station:SCCF:16:1,2009-11-02T07:00:00Z,26.4345,-81.9647,7.93,1111122 
SCCF RECON,ioos:station:SCCF:16:1,2009-11-02T08:00:00Z,26.4345,-81.9647,7.61,1111122 
SCCF RECON,ioos:station:SCCF:16:1,2009-11-02T09:00:00Z,26.4345,-81.9647,7.27,1111122 
SCCF RECON,ioos:station:SCCF:16:1,2009-11-02T10:00:00Z,26.4345,-81.9647,9.7,1111122 
SCCF RECON,ioos:station:SCCF:16:1,2009-11-02T11:00:00Z,26.4345,-81.9647,7.83,1111122 
SCCF RECON,ioos:station:SCCF:16:1,2009-11-02T12:00:00Z,26.4345,-81.9647,7.22,1111122 
SCCF RECON,ioos:station:SCCF:16:1,2009-11-02T13:00:00Z,26.4345,-81.9647,150.91,1111122 
SCCF RECON,ioos:station:SCCF:16:1,2009-11-02T14:00:00Z,26.4345,-81.9647,29.23,1111122 
SCCF RECON,ioos:station:SCCF:16:1,2009-11-02T15:00:00Z,26.4345,-81.9647,5.86,1111122 
SCCF RECON,ioos:station:SCCF:16:1,2009-11-02T16:00:00Z,26.4345,-81.9647,7.42,1111122 
SCCF RECON,ioos:station:SCCF:16:1,2009-11-02T17:00:00Z,26.4345,-81.9647,8.9,1111122 
SCCF RECON,ioos:station:SCCF:16:1,2009-11-02T18:00:00Z,26.4345,-81.9647,8.19,1111122 
SCCF RECON,ioos:station:SCCF:16:1,2009-11-02T19:00:00Z,26.4345,-81.9647,6.81,1111122 
SCCF RECON,ioos:station:SCCF:16:1,2009-11-02T20:00:00Z,26.4345,-81.9647,5.97,1111122 
SCCF RECON,ioos:station:SCCF:16:1,2009-11-02T21:00:00Z,26.4345,-81.9647,5.62,1111122 
SCCF RECON,ioos:station:SCCF:16:1,2009-11-02T22:00:00Z,26.4345,-81.9647,5.06,1111122 
SCCF RECON,ioos:station:SCCF:16:1,2009-11-02T23:00:00Z,26.4345,-81.9647,4.09,1111122 
SCCF RECON,ioos:station:SCCF:16:1,2009-11-03T00:00:00Z,26.4345,-81.9647,5.69,1111122 
SCCF RECON,ioos:station:SCCF:16:1,2009-11-03T01:00:00Z,26.4345,-81.9647,4.57,1111122 
SCCF RECON,ioos:station:SCCF:16:1,2009-11-03T02:00:00Z,26.4345,-81.9647,5.91,1111122 
SCCF RECON,ioos:station:SCCF:16:1,2009-11-03T03:00:00Z,26.4345,-81.9647,6.76,1111122 
SCCF RECON,ioos:station:SCCF:16:1,2009-11-03T04:00:00Z,26.4345,-81.9647,6.15,1111122 
SCCF RECON,ioos:station:SCCF:16:1,2009-11-03T05:00:00Z,26.4345,-81.9647,6.73,1111122 
SCCF RECON,ioos:station:SCCF:16:1,2009-11-03T06:00:00Z,26.4345,-81.9647,8.22,1111122 
SCCF RECON,ioos:station:SCCF:16:1,2009-11-03T07:00:00Z,26.4345,-81.9647,7.54,1111122 
SCCF RECON,ioos:station:SCCF:16:1,2009-11-03T08:00:00Z,26.4345,-81.9647,6.8,1111122 
SCCF RECON,ioos:station:SCCF:16:1,2009-11-03T09:00:00Z,26.4345,-81.9647,8.13,1111122 
SCCF RECON,ioos:station:SCCF:16:1,2009-11-03T10:00:00Z,26.4345,-81.9647,9.63,1111122 
SCCF RECON,ioos:station:SCCF:16:1,2009-11-03T11:00:00Z,26.4345,-81.9647,10.55,1111122 
SCCF RECON,ioos:station:SCCF:16:1,2009-11-03T12:00:00Z,26.4345,-81.9647,9.24,1111122 
SCCF RECON,ioos:station:SCCF:16:1,2009-11-03T13:00:00Z,26.4345,-81.9647,6.53,1111122 
SCCF RECON,ioos:station:SCCF:16:1,2009-11-03T14:00:00Z,26.4345,-81.9647,5.89,1111122 
SCCF RECON,ioos:station:SCCF:16:1,2009-11-03T15:00:00Z,26.4345,-81.9647,4.27,1111122 
SCCF RECON,ioos:station:SCCF:16:1,2009-11-03T16:00:00Z,26.4345,-81.9647,4.68,1111122 
SCCF RECON,ioos:station:SCCF:16:1,2009-11-03T17:00:00Z,26.4345,-81.9647,4.93,1111122 
SCCF RECON,ioos:station:SCCF:16:1,2009-11-03T18:00:00Z,26.4345,-81.9647,4.35,1111122 
SCCF RECON,ioos:station:SCCF:16:1,2009-11-03T19:00:00Z,26.4345,-81.9647,4.93,1111122 
SCCF RECON,ioos:station:SCCF:16:1,2009-11-03T20:00:00Z,26.4345,-81.9647,14.62,1111122 
SCCF RECON,ioos:station:SCCF:16:1,2009-11-03T21:00:00Z,26.4345,-81.9647,146.13,1111122 
SCCF RECON,ioos:station:SCCF:16:1,2009-11-03T22:00:00Z,26.4345,-81.9647,140.51,1111122 
SCCF RECON,ioos:station:SCCF:16:1,2009-11-03T23:00:00Z,26.4345,-81.9647,3.41,1111122 
SCCF RECON,ioos:station:SCCF:16:1,2009-11-04T00:00:00Z,26.4345,-81.9647,4.55,1111122 
SCCF RECON,ioos:station:SCCF:16:1,2009-11-04T01:00:00Z,26.4345,-81.9647,65.06,1111122 
SCCF RECON,ioos:station:SCCF:16:1,2009-11-04T02:00:00Z,26.4345,-81.9647,94.43,1111122 
SCCF RECON,ioos:station:SCCF:16:1,2009-11-04T03:00:00Z,26.4345,-81.9647,85.45,1111122 
SCCF RECON,ioos:station:SCCF:16:1,2009-11-04T04:00:00Z,26.4345,-81.9647,49.73,1111122 
SCCF RECON,ioos:station:SCCF:16:1,2009-11-04T05:00:00Z,26.4345,-81.9647,41.13,1111122 
SCCF RECON,ioos:station:SCCF:16:1,2009-11-04T06:00:00Z,26.4345,-81.9647,57.79,1111122 
SCCF RECON,ioos:station:SCCF:16:1,2009-11-04T07:00:00Z,26.4345,-81.9647,37.47,1111122 
SCCF RECON,ioos:station:SCCF:16:1,2009-11-04T08:00:00Z,26.4345,-81.9647,146.11,1111122 
SCCF RECON,ioos:station:SCCF:16:1,2009-11-04T09:00:00Z,26.4345,-81.9647,5.59,1111122 
SCCF RECON,ioos:station:SCCF:16:1,2009-11-04T10:00:00Z,26.4345,-81.9647,6.24,1111122 
SCCF RECON,ioos:station:SCCF:16:1,2009-11-04T11:00:00Z,26.4345,-81.9647,8.8,1111122 
SCCF RECON,ioos:station:SCCF:16:1,2009-11-04T12:00:00Z,26.4345,-81.9647,9.37,1111122 
SCCF RECON,ioos:station:SCCF:16:1,2009-11-04T13:00:00Z,26.4345,-81.9647,7.82,1111122 
SCCF RECON,ioos:station:SCCF:16:1,2009-11-04T14:00:00Z,26.4345,-81.9647,5.14,1111122 
SCCF RECON,ioos:station:SCCF:16:1,2009-11-04T15:00:00Z,26.4345,-81.9647,5.58,1111122 
SCCF RECON,ioos:station:SCCF:16:1,2009-11-04T16:00:00Z,26.4345,-81.9647,11.06,1111122 
SCCF RECON,ioos:station:SCCF:16:1,2009-11-04T17:00:00Z,26.4345,-81.9647,22.11,1111122 
SCCF RECON,ioos:station:SCCF:16:1,2009-11-04T18:00:00Z,26.4345,-81.9647,134.64,1111122 
SCCF RECON,ioos:station:SCCF:16:1,2009-11-04T19:00:00Z,26.4345,-81.9647,3.83,1111122 
SCCF RECON,ioos:station:SCCF:16:1,2009-11-04T20:00:00Z,26.4345,-81.9647,3.28,1111122 
SCCF RECON,ioos:station:SCCF:16:1,2009-11-04T21:00:00Z,26.4345,-81.9647,35.58,1111122 
SCCF RECON,ioos:station:SCCF:16:1,2009-11-04T22:00:00Z,26.4345,-81.9647,3.66,1111122 
SCCF RECON,ioos:station:SCCF:16:1,2009-11-04T23:00:00Z,26.4345,-81.9647,3.39,1111122 
SCCF RECON,ioos:station:SCCF:16:1,2009-11-05T00:00:00Z,26.4345,-81.9647,16.0,1111122 
SCCF RECON,ioos:station:SCCF:16:1,2009-11-05T01:00:00Z,26.4345,-81.9647,38.03,1111122 
SCCF RECON,ioos:station:SCCF:16:1,2009-11-05T02:00:00Z,26.4345,-81.9647,55.5,1111122 
SCCF RECON,ioos:station:SCCF:16:1,2009-11-05T03:00:00Z,26.4345,-81.9647,4.48,1111122 
SCCF RECON,ioos:station:SCCF:16:1,2009-11-05T04:00:00Z,26.4345,-81.9647,4.21,1111122 
SCCF RECON,ioos:station:SCCF:16:1,2009-11-05T05:00:00Z,26.4345,-81.9647,6.62,1111122 
SCCF RECON,ioos:station:SCCF:16:1,2009-11-05T06:00:00Z,26.4345,-81.9647,3.41,1111122 
SCCF RECON,ioos:station:SCCF:16:1,2009-11-05T07:00:00Z,26.4345,-81.9647,3.48,1111122 
SCCF RECON,ioos:station:SCCF:16:1,2009-11-05T08:00:00Z,26.4345,-81.9647,36.04,1111122 
SCCF RECON,ioos:station:SCCF:16:1,2009-11-05T09:00:00Z,26.4345,-81.9647,3.59,1111122 
SCCF RECON,ioos:station:SCCF:16:1,2009-11-05T10:00:00Z,26.4345,-81.9647,4.39,1111122 
SCCF RECON,ioos:station:SCCF:16:1,2009-11-05T11:00:00Z,26.4345,-81.9647,5.9,1111122 
SCCF RECON,ioos:station:SCCF:16:1,2009-11-05T12:00:00Z,26.4345,-81.9647,9.51,1111122 
SCCF RECON,ioos:station:SCCF:16:1,2009-11-05T13:00:00Z,26.4345,-81.9647,9.67,1111122 
SCCF RECON,ioos:station:SCCF:16:1,2009-11-05T14:00:00Z,26.4345,-81.9647,7.63,1111122 
SCCF RECON,ioos:station:SCCF:16:1,2009-11-05T15:00:00Z,26.4345,-81.9647,5.1,1111122 
SCCF RECON,ioos:station:SCCF:16:1,2009-11-05T16:00:00Z,26.4345,-81.9647,10.0,1111122 
SCCF RECON,ioos:station:SCCF:16:1,2009-11-05T17:00:00Z,26.4345,-81.9647,48.42,1111122 
SCCF RECON,ioos:station:SCCF:16:1,2009-11-05T18:00:00Z,26.4345,-81.9647,5.15,1111122 
SCCF RECON,ioos:station:SCCF:16:1,2009-11-05T19:00:00Z,26.4345,-81.9647,6.63,1111122 
SCCF RECON,ioos:station:SCCF:16:1,2009-11-05T20:00:00Z,26.4345,-81.9647,4.01,1111122 
SCCF RECON,ioos:station:SCCF:16:1,2009-11-05T21:00:00Z,26.4345,-81.9647,3.28,1111122 
SCCF RECON,ioos:station:SCCF:16:1,2009-11-05T22:00:00Z,26.4345,-81.9647,4.05,1111122 
SCCF RECON,ioos:station:SCCF:16:1,2009-11-05T23:00:00Z,26.4345,-81.9647,3.36,1111122 
SCCF RECON,ioos:station:SCCF:16:1,2009-11-06T00:00:00Z,26.4345,-81.9647,3.44,1111122 
SCCF RECON,ioos:station:SCCF:16:1,2009-11-06T01:00:00Z,26.4345,-81.9647,3.39,1111122 
SCCF RECON,ioos:station:SCCF:16:1,2009-11-06T02:00:00Z,26.4345,-81.9647,3.33,1111122 
SCCF RECON,ioos:station:SCCF:16:1,2009-11-06T03:00:00Z,26.4345,-81.9647,3.37,1111122 
SCCF RECON,ioos:station:SCCF:16:1,2009-11-06T04:00:00Z,26.4345,-81.9647,6.52,1111122 
SCCF RECON,ioos:station:SCCF:16:1,2009-11-06T05:00:00Z,26.4345,-81.9647,6.09,1111122 
SCCF RECON,ioos:station:SCCF:16:1,2009-11-06T06:00:00Z,26.4345,-81.9647,4.49,1111122 
SCCF RECON,ioos:station:SCCF:16:1,2009-11-06T07:00:00Z,26.4345,-81.9647,7.08,1111122 
SCCF RECON,ioos:station:SCCF:16:1,2009-11-06T08:00:00Z,26.4345,-81.9647,7.44,1111122 
SCCF RECON,ioos:station:SCCF:16:1,2009-11-06T09:00:00Z,26.4345,-81.9647,4.66,1111122 
SCCF RECON,ioos:station:SCCF:16:1,2009-11-06T10:00:00Z,26.4345,-81.9647,4.32,1111122 
SCCF RECON,ioos:station:SCCF:16:1,2009-11-06T11:00:00Z,26.4345,-81.9647,4.19,1111122 
SCCF RECON,ioos:station:SCCF:16:1,2009-11-06T12:00:00Z,26.4345,-81.9647,6.07,1111122 
SCCF RECON,ioos:station:SCCF:16:1,2009-11-06T13:00:00Z,26.4345,-81.9647,7.61,1111122 
SCCF RECON,ioos:station:SCCF:16:1,2009-11-06T14:00:00Z,26.4345,-81.9647,8.19,1111122 
SCCF RECON,ioos:station:SCCF:16:1,2009-11-06T15:00:00Z,26.4345,-81.9647,6.46,1111122 
SCCF RECON,ioos:station:SCCF:16:1,2009-11-06T16:00:00Z,26.4345,-81.9647,3.96,1111122 
SCCF RECON,ioos:station:SCCF:16:1,2009-11-06T17:00:00Z,26.4345,-81.9647,23.79,1111122 
SCCF RECON,ioos:station:SCCF:16:1,2009-11-06T18:00:00Z,26.4345,-81.9647,54.45,1111122 
SCCF RECON,ioos:station:SCCF:16:1,2009-11-06T19:00:00Z,26.4345,-81.9647,158.86,1111122 
SCCF RECON,ioos:station:SCCF:16:1,2009-11-06T20:00:00Z,26.4345,-81.9647,44.66,1111122 
SCCF RECON,ioos:station:SCCF:16:1,2009-11-06T21:00:00Z,26.4345,-81.9647,153.08,1111122 
SCCF RECON,ioos:station:SCCF:16:1,2009-11-06T22:00:00Z,26.4345,-81.9647,92.11,1111122 
SCCF RECON,ioos:station:SCCF:16:1,2009-11-06T23:00:00Z,26.4345,-81.9647,3.17,1111122 
SCCF RECON,ioos:station:SCCF:16:1,2009-11-07T00:00:00Z,26.4345,-81.9647,3.23,1111122 
SCCF RECON,ioos:station:SCCF:16:1,2009-11-07T01:00:00Z,26.4345,-81.9647,37.39,1111122 
SCCF RECON,ioos:station:SCCF:16:1,2009-11-07T02:00:00Z,26.4345,-81.9647,41.29,1111122 
SCCF RECON,ioos:station:SCCF:16:1,2009-11-07T03:00:00Z,26.4345,-81.9647,12.88,1111122 
SCCF RECON,ioos:station:SCCF:16:1,2009-11-07T04:00:00Z,26.4345,-81.9647,41.62,1111122 
SCCF RECON,ioos:station:SCCF:16:1,2009-11-07T05:00:00Z,26.4345,-81.9647,3.06,1111122 
SCCF RECON,ioos:station:SCCF:16:1,2009-11-07T06:00:00Z,26.4345,-81.9647,2.68,1111122 
SCCF RECON,ioos:station:SCCF:16:1,2009-11-07T07:00:00Z,26.4345,-81.9647,2.65,1111122 
SCCF RECON,ioos:station:SCCF:16:1,2009-11-07T08:00:00Z,26.4345,-81.9647,2.56,1111122 
SCCF RECON,ioos:station:SCCF:16:1,2009-11-07T09:00:00Z,26.4345,-81.9647,2.74,1111122 
SCCF RECON,ioos:station:SCCF:16:1,2009-11-07T10:00:00Z,26.4345,-81.9647,2.64,1111122 
SCCF RECON,ioos:station:SCCF:16:1,2009-11-07T11:00:00Z,26.4345,-81.9647,4.08,1111122 
SCCF RECON,ioos:station:SCCF:16:1,2009-11-07T12:00:00Z,26.4345,-81.9647,3.23,1111122 
SCCF RECON,ioos:station:SCCF:16:1,2009-11-07T13:00:00Z,26.4345,-81.9647,4.8,1111122 
SCCF RECON,ioos:station:SCCF:16:1,2009-11-07T14:00:00Z,26.4345,-81.9647,5.24,1111122 
SCCF RECON,ioos:station:SCCF:16:1,2009-11-07T15:00:00Z,26.4345,-81.9647,5.64,1111122 
SCCF RECON,ioos:station:SCCF:16:1,2009-11-07T16:00:00Z,26.4345,-81.9647,4.78,1111122 
SCCF RECON,ioos:station:SCCF:16:1,2009-11-07T17:00:00Z,26.4345,-81.9647,4.11,1111122 
SCCF RECON,ioos:station:SCCF:16:1,2009-11-07T18:00:00Z,26.4345,-81.9647,4.19,1111122 
SCCF RECON,ioos:station:SCCF:16:1,2009-11-07T19:00:00Z,26.4345,-81.9647,5.81,1111122 
SCCF RECON,ioos:station:SCCF:16:1,2009-11-07T20:00:00Z,26.4345,-81.9647,3.33,1111122 
SCCF RECON,ioos:station:SCCF:16:1,2009-11-07T21:00:00Z,26.4345,-81.9647,3.01,1111122 
SCCF RECON,ioos:station:SCCF:16:1,2009-11-07T22:00:00Z,26.4345,-81.9647,2.73,1111122 
SCCF RECON,ioos:station:SCCF:16:1,2009-11-07T23:00:00Z,26.4345,-81.9647,3.3,1111122 
SCCF RECON,ioos:station:SCCF:16:1,2009-11-08T00:00:00Z,26.4345,-81.9647,67.62,1111122 
SCCF RECON,ioos:station:SCCF:16:1,2009-11-08T01:00:00Z,26.4345,-81.9647,69.77,1111122 
SCCF RECON,ioos:station:SCCF:16:1,2009-11-08T02:00:00Z,26.4345,-81.9647,56.77,1111122 
SCCF RECON,ioos:station:SCCF:16:1,2009-11-08T03:00:00Z,26.4345,-81.9647,74.05,1111122 
SCCF RECON,ioos:station:SCCF:16:1,2009-11-08T04:00:00Z,26.4345,-81.9647,47.15,1111122 
SCCF RECON,ioos:station:SCCF:16:1,2009-11-08T05:00:00Z,26.4345,-81.9647,3.58,1111122 
SCCF RECON,ioos:station:SCCF:16:1,2009-11-08T06:00:00Z,26.4345,-81.9647,41.71,1111122 
SCCF RECON,ioos:station:SCCF:16:1,2009-11-08T07:00:00Z,26.4345,-81.9647,3.94,1111122 
SCCF RECON,ioos:station:SCCF:16:1,2009-11-08T08:00:00Z,26.4345,-81.9647,4.26,1111122 
SCCF RECON,ioos:station:SCCF:16:1,2009-11-08T09:00:00Z,26.4345,-81.9647,4.25,1111122 
SCCF RECON,ioos:station:SCCF:16:1,2009-11-08T10:00:00Z,26.4345,-81.9647,35.19,1111122 
SCCF RECON,ioos:station:SCCF:16:1,2009-11-08T11:00:00Z,26.4345,-81.9647,4.27,1111122 
SCCF RECON,ioos:station:SCCF:16:1,2009-11-08T12:00:00Z,26.4345,-81.9647,4.37,1111122 
SCCF RECON,ioos:station:SCCF:16:1,2009-11-08T13:00:00Z,26.4345,-81.9647,3.83,1111122 
SCCF RECON,ioos:station:SCCF:16:1,2009-11-08T14:00:00Z,26.4345,-81.9647,3.92,1111122 
SCCF RECON,ioos:station:SCCF:16:1,2009-11-08T15:00:00Z,26.4345,-81.9647,3.53,1111122 
SCCF RECON,ioos:station:SCCF:16:1,2009-11-08T16:00:00Z,26.4345,-81.9647,4.29,1111122 
SCCF RECON,ioos:station:SCCF:16:1,2009-11-08T17:00:00Z,26.4345,-81.9647,4.46,1111122 
SCCF RECON,ioos:station:SCCF:16:1,2009-11-08T18:00:00Z,26.4345,-81.9647,4.25,1111122 
SCCF RECON,ioos:station:SCCF:16:1,2009-11-08T19:00:00Z,26.4345,-81.9647,3.47,1111122 
SCCF RECON,ioos:station:SCCF:16:1,2009-11-08T20:00:00Z,26.4345,-81.9647,3.39,1111122 
SCCF RECON,ioos:station:SCCF:16:1,2009-11-08T21:00:00Z,26.4345,-81.9647,3.48,1111122 
SCCF RECON,ioos:station:SCCF:16:1,2009-11-08T22:00:00Z,26.4345,-81.9647,4.88,1111122 
SCCF RECON,ioos:station:SCCF:16:1,2009-11-08T23:00:00Z,26.4345,-81.9647,5.32,1111122 
SCCF RECON,ioos:station:SCCF:16:1,2009-11-09T00:00:00Z,26.4345,-81.9647,154.46,1111122 
SCCF RECON,ioos:station:SCCF:16:1,2009-11-09T01:00:00Z,26.4345,-81.9647,181.46,1111122 
SCCF RECON,ioos:station:SCCF:16:1,2009-11-09T02:00:00Z,26.4345,-81.9647,87.39,1111122 
SCCF RECON,ioos:station:SCCF:16:1,2009-11-09T03:00:00Z,26.4345,-81.9647,198.69,1111122 
SCCF RECON,ioos:station:SCCF:16:1,2009-11-09T04:00:00Z,26.4345,-81.9647,198.97,1111122 
SCCF RECON,ioos:station:SCCF:16:1,2009-11-09T05:00:00Z,26.4345,-81.9647,198.97,1111122 
SCCF RECON,ioos:station:SCCF:16:1,2009-11-09T06:00:00Z,26.4345,-81.9647,198.97,1111122 
SCCF RECON,ioos:station:SCCF:16:1,2009-11-09T07:00:00Z,26.4345,-81.9647,198.97,1111122 
SCCF RECON,ioos:station:SCCF:16:1,2009-11-09T08:00:00Z,26.4345,-81.9647,4.56,1111122 
SCCF RECON,ioos:station:SCCF:16:1,2009-11-09T09:00:00Z,26.4345,-81.9647,4.7,1111122 
SCCF RECON,ioos:station:SCCF:16:1,2009-11-09T10:00:00Z,26.4345,-81.9647,4.36,1111122 
SCCF RECON,ioos:station:SCCF:16:1,2009-11-09T11:00:00Z,26.4345,-81.9647,198.97,1111122 
SCCF RECON,ioos:station:SCCF:16:1,2009-11-09T12:00:00Z,26.4345,-81.9647,3.91,1111122 
SCCF RECON,ioos:station:SCCF:16:1,2009-11-09T13:00:00Z,26.4345,-81.9647,3.73,1111122 
SCCF RECON,ioos:station:SCCF:16:1,2009-11-09T14:00:00Z,26.4345,-81.9647,3.7,1111122 
SCCF RECON,ioos:station:SCCF:16:1,2009-11-09T15:00:00Z,26.4345,-81.9647,4.41,1111122 
SCCF RECON,ioos:station:SCCF:16:1,2009-11-09T16:00:00Z,26.4345,-81.9647,4.11,1111122 
SCCF RECON,ioos:station:SCCF:16:1,2009-11-09T17:00:00Z,26.4345,-81.9647,4.19,1111122 
SCCF RECON,ioos:station:SCCF:16:1,2009-11-09T18:00:00Z,26.4345,-81.9647,4.69,1111122 
SCCF RECON,ioos:station:SCCF:16:1,2009-11-09T19:00:00Z,26.4345,-81.9647,6.31,1111122 
SCCF RECON,ioos:station:SCCF:16:1,2009-11-09T20:00:00Z,26.4345,-81.9647,8.14,1111122 
SCCF RECON,ioos:station:SCCF:16:1,2009-11-09T21:00:00Z,26.4345,-81.9647,8.79,1111122 
SCCF RECON,ioos:station:SCCF:16:1,2009-11-09T22:00:00Z,26.4345,-81.9647,9.71,1111122 
SCCF RECON,ioos:station:SCCF:16:1,2009-11-09T23:00:00Z,26.4345,-81.9647,10.36,1111122 
SCCF RECON,ioos:station:SCCF:16:1,2009-11-10T00:00:00Z,26.4345,-81.9647,11.26,1111122 
SCCF RECON,ioos:station:SCCF:16:1,2009-11-10T01:00:00Z,26.4345,-81.9647,10.91,1111122 
SCCF RECON,ioos:station:SCCF:16:1,2009-11-10T02:00:00Z,26.4345,-81.9647,11.0,1111122 
SCCF RECON,ioos:station:SCCF:16:1,2009-11-10T03:00:00Z,26.4345,-81.9647,10.65,1111122 
SCCF RECON,ioos:station:SCCF:16:1,2009-11-10T04:00:00Z,26.4345,-81.9647,9.99,1111122 
SCCF RECON,ioos:station:SCCF:16:1,2009-11-10T05:00:00Z,26.4345,-81.9647,8.19,1111122 
SCCF RECON,ioos:station:SCCF:16:1,2009-11-10T06:00:00Z,26.4345,-81.9647,7.12,1111122 
SCCF RECON,ioos:station:SCCF:16:1,2009-11-10T07:00:00Z,26.4345,-81.9647,6.46,1111122 
SCCF RECON,ioos:station:SCCF:16:1,2009-11-10T08:00:00Z,26.4345,-81.9647,6.49,1111122 
SCCF RECON,ioos:station:SCCF:16:1,2009-11-10T09:00:00Z,26.4345,-81.9647,6.81,1111122 
SCCF RECON,ioos:station:SCCF:16:1,2009-11-10T10:00:00Z,26.4345,-81.9647,8.05,1111122 
SCCF RECON,ioos:station:SCCF:16:1,2009-11-10T11:00:00Z,26.4345,-81.9647,10.03,1111122 
SCCF RECON,ioos:station:SCCF:16:1,2009-11-10T12:00:00Z,26.4345,-81.9647,13.03,1111122 
SCCF RECON,ioos:station:SCCF:16:1,2009-11-10T13:00:00Z,26.4345,-81.9647,13.12,1111122 
SCCF RECON,ioos:station:SCCF:16:1,2009-11-10T14:00:00Z,26.4345,-81.9647,9.43,1111122 
SCCF RECON,ioos:station:SCCF:16:1,2009-11-10T15:00:00Z,26.4345,-81.9647,8.7,1111122 
SCCF RECON,ioos:station:SCCF:16:1,2009-11-10T16:00:00Z,26.4345,-81.9647,10.06,1111122 
SCCF RECON,ioos:station:SCCF:16:1,2009-11-10T17:00:00Z,26.4345,-81.9647,10.05,1111122 
SCCF RECON,ioos:station:SCCF:16:1,2009-11-10T18:00:00Z,26.4345,-81.9647,7.31,1111122 
SCCF RECON,ioos:station:SCCF:16:1,2009-11-10T19:00:00Z,26.4345,-81.9647,6.91,1111122 
SCCF RECON,ioos:station:SCCF:16:1,2009-11-10T20:00:00Z,26.4345,-81.9647,6.54,1111122 
SCCF RECON,ioos:station:SCCF:16:1,2009-11-10T21:00:00Z,26.4345,-81.9647,6.73,1111122 
SCCF RECON,ioos:station:SCCF:16:1,2009-11-10T22:00:00Z,26.4345,-81.9647,6.51,1111122 
SCCF RECON,ioos:station:SCCF:16:1,2009-11-10T23:00:00Z,26.4345,-81.9647,155.92,1111122 
SCCF RECON,ioos:station:SCCF:16:1,2009-11-11T00:00:00Z,26.4345,-81.9647,198.97,1111122 
SCCF RECON,ioos:station:SCCF:16:1,2009-11-11T01:00:00Z,26.4345,-81.9647,198.97,1111122 
SCCF RECON,ioos:station:SCCF:16:1,2009-11-11T02:00:00Z,26.4345,-81.9647,198.97,1111122 
SCCF RECON,ioos:station:SCCF:16:1,2009-11-11T03:00:00Z,26.4345,-81.9647,198.97,1111122 
SCCF RECON,ioos:station:SCCF:16:1,2009-11-11T04:00:00Z,26.4345,-81.9647,190.33,1111122 
SCCF RECON,ioos:station:SCCF:16:1,2009-11-11T05:00:00Z,26.4345,-81.9647,198.88,1111122 
SCCF RECON,ioos:station:SCCF:16:1,2009-11-11T06:00:00Z,26.4345,-81.9647,193.94,1111122 
SCCF RECON,ioos:station:SCCF:16:1,2009-11-11T07:00:00Z,26.4345,-81.9647,152.79,1111122 
SCCF RECON,ioos:station:SCCF:16:1,2009-11-11T08:00:00Z,26.4345,-81.9647,198.97,1111122 
SCCF RECON,ioos:station:SCCF:16:1,2009-11-11T09:00:00Z,26.4345,-81.9647,147.36,1111122 
SCCF RECON,ioos:station:SCCF:16:1,2009-11-11T10:00:00Z,26.4345,-81.9647,198.97,1111122 
SCCF RECON,ioos:station:SCCF:16:1,2009-11-11T11:00:00Z,26.4345,-81.9647,162.17,1111122 
SCCF RECON,ioos:station:SCCF:16:1,2009-11-11T12:00:00Z,26.4345,-81.9647,8.43,1111122 
SCCF RECON,ioos:station:SCCF:16:1,2009-11-11T13:00:00Z,26.4345,-81.9647,6.5,1111122 
SCCF RECON,ioos:station:SCCF:16:1,2009-11-11T14:00:00Z,26.4345,-81.9647,7.01,1111122 
SCCF RECON,ioos:station:SCCF:16:1,2009-11-11T15:00:00Z,26.4345,-81.9647,7.62,1111122 
SCCF RECON,ioos:station:SCCF:16:1,2009-11-11T16:00:00Z,26.4345,-81.9647,7.18,1111122 
SCCF RECON,ioos:station:SCCF:16:1,2009-11-11T17:00:00Z,26.4345,-81.9647,7.11,1111122 
SCCF RECON,ioos:station:SCCF:16:1,2009-11-11T18:00:00Z,26.4345,-81.9647,6.64,1111122 
SCCF RECON,ioos:station:SCCF:16:1,2009-11-11T19:00:00Z,26.4345,-81.9647,7.86,1111122 
SCCF RECON,ioos:station:SCCF:16:1,2009-11-11T20:00:00Z,26.4345,-81.9647,6.41,1111122 
SCCF RECON,ioos:station:SCCF:16:1,2009-11-11T21:00:00Z,26.4345,-81.9647,6.58,1111122 
SCCF RECON,ioos:station:SCCF:16:1,2009-11-11T22:00:00Z,26.4345,-81.9647,6.91,1111122 
SCCF RECON,ioos:station:SCCF:16:1,2009-11-11T23:00:00Z,26.4345,-81.9647,13.11,1111122 
SCCF RECON,ioos:station:SCCF:16:1,2009-11-12T00:00:00Z,26.4345,-81.9647,198.97,1111122 
SCCF RECON,ioos:station:SCCF:16:1,2009-11-12T01:00:00Z,26.4345,-81.9647,196.79,1111122 
SCCF RECON,ioos:station:SCCF:16:1,2009-11-12T02:00:00Z,26.4345,-81.9647,198.57,1111122 
SCCF RECON,ioos:station:SCCF:16:1,2009-11-12T03:00:00Z,26.4345,-81.9647,198.97,1111122 
SCCF RECON,ioos:station:SCCF:16:1,2009-11-12T04:00:00Z,26.4345,-81.9647,198.97,1111122 
SCCF RECON,ioos:station:SCCF:16:1,2009-11-12T05:00:00Z,26.4345,-81.9647,171.85,1111122 
SCCF RECON,ioos:station:SCCF:16:1,2009-11-12T06:00:00Z,26.4345,-81.9647,7.38,1111122 
SCCF RECON,ioos:station:SCCF:16:1,2009-11-12T07:00:00Z,26.4345,-81.9647,6.2,1111122 
SCCF RECON,ioos:station:SCCF:16:1,2009-11-12T08:00:00Z,26.4345,-81.9647,10.56,1111122 
SCCF RECON,ioos:station:SCCF:16:1,2009-11-12T09:00:00Z,26.4345,-81.9647,5.68,1111122 
SCCF RECON,ioos:station:SCCF:16:1,2009-11-12T10:00:00Z,26.4345,-81.9647,5.83,1111122 
SCCF RECON,ioos:station:SCCF:16:1,2009-11-12T11:00:00Z,26.4345,-81.9647,6.19,1111122 
SCCF RECON,ioos:station:SCCF:16:1,2009-11-12T12:00:00Z,26.4345,-81.9647,5.58,1111122 